Change the Weather History Date:

Thursday, August 22, 2013

  Actual Average Record
Temperature  
Mean Temperature 64 °F -  
Max Temperature 75 °F 67 °F 80 °F (2001)
Min Temperature 53 °F 51 °F 46 °F (1999)
Degree Days  
Heating Degree Days 1    
Growing Degree Days 14 (Base 50)    
Moisture  
Dew Point 53 °F    
Average Humidity 66    
Maximum Humidity 88    
Minimum Humidity 35    
Precipitation  
Precipitation 0.00 in - - ()
Sea Level Pressure  
Sea Level Pressure 30.13 in    
Wind  
Wind Speed 4 mph ()    
Max Wind Speed 14 mph    
Max Gust Speed -    
Visibility 6.4 miles    
Events      
Averages and records for this station are not official NWS values.
T = Trace of Precipitation, MM = Missing Value Source: Averaged Metar Reports

Daily Weather History Graph

Daily Weather History Graph

Search for Another Location

Airport or City:

Trip Planner

Search our weather history database for the weather conditions in past years. The results will help you decide how hot, cold, wet, or windy it might be!

Date:

Astronomy

Aug. 22, 2013 Rise Set
Actual Time 6:41 AM CEST 8:47 PM CEST
Civil Twilight 6:05 AM CEST 9:22 PM CEST
Nautical Twilight 5:21 AM CEST 10:06 PM CEST
Astronomical Twilight 4:31 AM CEST 10:56 PM CEST
Moon 9:03 PM CEST (8/22) 8:27 AM CEST (8/22)
Length of Visible Light 15h 16m
Length of Day
14h 06m
Full, 98% of the Moon is Illuminated
Aug 22
Full
Aug 28
Last Quarter
Sep 5
New
Sep 12
First Quarter
Sep 19
Full

Hourly Weather History & Observations

Time (CEST) Temp. Dew Point Humidity Pressure Visibility Wind Dir Wind Speed Gust Speed Precip Events Conditions
12:20 AM 60.8 °F 51.8 °F 72% 30.18 in - SE 4.6 mph - N/A   Clear
12:50 AM 59.0 °F 53.6 °F 82% 30.18 in - SE 3.5 mph - N/A   Clear
1:20 AM 57.2 °F 53.6 °F 88% 30.18 in - SE 4.6 mph - N/A   Clear
1:50 AM 60.8 °F 51.8 °F 72% 30.18 in - SSE 4.6 mph - N/A   Clear
2:20 AM 59.0 °F 51.8 °F 77% 30.18 in - SSE 4.6 mph - N/A   Clear
2:50 AM 59.0 °F 51.8 °F 77% 30.18 in - South 2.3 mph - N/A   Clear
3:20 AM 55.4 °F 51.8 °F 88% 30.15 in - Variable 1.2 mph - N/A   Clear
3:50 AM 55.4 °F 50.0 °F 82% 30.18 in - Variable 1.2 mph - N/A   Clear
4:20 AM 53.6 °F 50.0 °F 88% 30.15 in - ESE 2.3 mph - N/A   Clear
4:50 AM 53.6 °F 48.2 °F 82% 30.15 in - Variable 1.2 mph - N/A   Clear
5:00 AM 55 °F 50 °F 79% 30.17 in 7 mi SSE 2.2 mph - -   Clear
5:20 AM 57.2 °F 50.0 °F 77% 30.15 in - SSE 2.3 mph - N/A   Clear
5:50 AM 55.4 °F 50.0 °F 82% 30.15 in - South 1.2 mph - N/A   Clear
6:20 AM 55.4 °F 50.0 °F 82% 30.15 in - South 2.3 mph - N/A   Clear
6:50 AM 55.4 °F 51.8 °F 88% 30.15 in - South 3.5 mph - N/A   Clear
7:20 AM 55.4 °F 50.0 °F 82% 30.15 in - South 2.3 mph - N/A   Clear
7:50 AM 59.0 °F 51.8 °F 77% 30.15 in - Variable 2.3 mph - N/A   Clear
8:20 AM 60.8 °F 53.6 °F 77% 30.15 in 5.6 mi Variable 2.3 mph - N/A   Unknown
8:50 AM 62.6 °F 53.6 °F 72% 30.15 in - Variable 1.2 mph - N/A   Clear
9:20 AM 64.4 °F 53.6 °F 68% 30.15 in - Variable 1.2 mph - N/A   Clear
9:50 AM 68.0 °F 55.4 °F 64% 30.15 in - Variable 1.2 mph - N/A   Clear
10:20 AM 69.8 °F 48.2 °F 46% 30.15 in - Variable 2.3 mph - N/A   Clear
10:50 AM 71.6 °F 50.0 °F 46% 30.15 in - NNE 4.6 mph - N/A   Clear
11:00 AM 72 °F 50 °F 35% 30.15 in 11 mi NNE 4.5 mph - -   Scattered Clouds
11:20 AM 73.4 °F 50.0 °F 44% 30.15 in - ENE 4.6 mph - N/A   Clear
11:50 AM 73.4 °F 48.2 °F 41% 30.15 in - NNE 6.9 mph - N/A   Clear
12:20 PM 75.2 °F 51.8 °F 44% 30.15 in - NNE 6.9 mph - N/A   Clear
12:50 PM 75.2 °F 50.0 °F 41% 30.15 in - NNE 9.2 mph - N/A   Clear
1:20 PM 75.2 °F 50.0 °F 41% 30.15 in - NNE 6.9 mph - N/A   Clear
1:50 PM 73.4 °F 51.8 °F 47% 30.15 in - North 5.8 mph - N/A   Clear
2:20 PM 73.4 °F 53.6 °F 50% 30.15 in - North 8.1 mph - N/A   Clear
2:50 PM 73.4 °F 51.8 °F 47% 30.12 in - NNE 8.1 mph - N/A   Clear
3:20 PM 73.4 °F 53.6 °F 50% 30.12 in - NE 8.1 mph - N/A   Clear
3:50 PM 73.4 °F 53.6 °F 50% 30.12 in - NE 8.1 mph - N/A   Clear
4:20 PM 73.4 °F 53.6 °F 50% 30.12 in - NE 5.8 mph - N/A   Clear
4:50 PM 73.4 °F 53.6 °F 50% 30.12 in - NE 6.9 mph - N/A   Clear
5:00 PM 73 °F 54 °F 41% 30.11 in 6 mi NE 6.7 mph - -   Partly Cloudy
5:20 PM 73.4 °F 53.6 °F 50% 30.12 in - NE 8.1 mph - N/A   Clear
5:50 PM 73.4 °F 53.6 °F 50% 30.09 in - NE 9.2 mph - N/A   Clear
6:20 PM 71.6 °F 55.4 °F 57% 30.09 in - ENE 9.2 mph - N/A   Clear
6:50 PM 71.6 °F 55.4 °F 57% 30.09 in 5.6 mi NE 9.2 mph - N/A   Unknown
7:20 PM 69.8 °F 57.2 °F 64% 30.06 in 5.6 mi NNE 9.2 mph - N/A   Unknown
7:50 PM 68.0 °F 59.0 °F 73% 30.09 in 5.6 mi NNE 9.2 mph - N/A   Unknown
8:00 PM 68 °F 58 °F 61% 30.08 in 8 mi NNE 11.2 mph - -   Mostly Cloudy
8:20 PM 68.0 °F 59.0 °F 73% 30.06 in - ENE 13.8 mph - N/A   Clear
8:50 PM 64.4 °F 59.0 °F 83% 30.09 in - NNE 9.2 mph - N/A   Clear
9:20 PM 64.4 °F 57.2 °F 77% 30.09 in - NE 11.5 mph - N/A   Clear
9:50 PM 64.4 °F 57.2 °F 77% 30.09 in - North 6.9 mph - N/A   Clear
10:20 PM 62.6 °F 57.2 °F 82% 30.09 in - North 6.9 mph - N/A   Clear
10:50 PM 62.6 °F 57.2 °F 82% 30.09 in - NE 8.1 mph - N/A   Clear
11:20 PM 60.8 °F 57.2 °F 88% 30.09 in 5.0 mi ENE 6.9 mph - N/A   Unknown
11:50 PM 60.8 °F 57.2 °F 88% 30.09 in 4.3 mi NE 6.9 mph - N/A   Unknown